Data supplied by UK-AIR on 21/1/2015
All Data GMT hour ending 
Status: R =Ratified P=Provisional,P*=As supplied
,,London Haringey Priory Park South,,,,,,,,,,,,,,,,,,,,,,,
Date,time,"Nitric oxide",status,unit,"Nitrogen dioxide",status,unit,"Nitrogen oxides as nitrogen dioxide",status,unit,"Ozone",status,unit
 
01-01-2013,01:00,2.28630,R,ugm-3,17.76139,R,ugm-3,21.26700,R,ugm-3,58.20792,R,ugm-3
01-01-2013,02:00,2.09172,R,ugm-3,11.17474,R,ugm-3,14.38200,R,ugm-3,71.71215,R,ugm-3
01-01-2013,03:00,1.78769,R,ugm-3,6.15203,R,ugm-3,8.89313,R,ugm-3,85.86499,R,ugm-3
01-01-2013,04:00,1.89714,R,ugm-3,9.94309,R,ugm-3,12.85200,R,ugm-3,73.89079,R,ugm-3
01-01-2013,05:00,1.71473,R,ugm-3,8.90317,R,ugm-3,11.53238,R,ugm-3,73.39187,R,ugm-3
01-01-2013,06:00,1.97011,R,ugm-3,8.74108,R,ugm-3,11.76188,R,ugm-3,74.58929,R,ugm-3
01-01-2013,07:00,2.29846,R,ugm-3,14.95049,R,ugm-3,18.47475,R,ugm-3,62.76477,R,ugm-3
01-01-2013,08:00,2.37143,R,ugm-3,17.42048,R,ugm-3,21.05663,R,ugm-3,58.02498,R,ugm-3
01-01-2013,09:00,2.66330,R,ugm-3,17.83358,R,ugm-3,21.91725,R,ugm-3,57.97509,R,ugm-3
01-01-2013,10:00,3.32000,R,ugm-3,17.51515,R,ugm-3,22.60575,R,ugm-3,63.06412,R,ugm-3
01-01-2013,11:00,4.15912,R,ugm-3,18.23664,R,ugm-3,24.61388,R,ugm-3,62.61509,R,ugm-3
01-01-2013,12:00,3.42945,R,ugm-3,13.15896,R,ugm-3,18.41738,R,ugm-3,72.54370,R,ugm-3
01-01-2013,13:00,2.95517,R,ugm-3,10.55843,R,ugm-3,15.08963,R,ugm-3,79.77811,R,ugm-3
01-01-2013,14:00,2.40791,R,ugm-3,7.66817,R,ugm-3,11.36025,R,ugm-3,83.07101,R,ugm-3
01-01-2013,15:00,2.40791,R,ugm-3,8.93042,R,ugm-3,12.62250,R,ugm-3,83.42026,R,ugm-3
01-01-2013,16:00,2.80923,R,ugm-3,17.09345,R,ugm-3,21.40088,R,ugm-3,69.10111,R,ugm-3
01-01-2013,17:00,3.53890,R,ugm-3,30.31838,R,ugm-3,35.74463,R,ugm-3,49.94239,R,ugm-3
01-01-2013,18:00,3.53890,R,ugm-3,34.21988,R,ugm-3,39.64613,R,ugm-3,50.04218,R,ugm-3
01-01-2013,19:00,3.72132,R,ugm-3,42.77593,R,ugm-3,48.48188,R,ugm-3,34.37593,R,ugm-3
01-01-2013,20:00,3.42945,R,ugm-3,35.93683,R,ugm-3,41.19525,R,ugm-3,38.16776,R,ugm-3
01-01-2013,21:00,3.32000,R,ugm-3,31.80153,R,ugm-3,36.89213,R,ugm-3,41.51056,R,ugm-3
01-01-2013,22:00,3.79429,R,ugm-3,38.93468,R,ugm-3,44.75250,R,ugm-3,31.73163,R,ugm-3
01-01-2013,23:00,3.21055,R,ugm-3,35.69873,R,ugm-3,40.62150,R,ugm-3,29.63615,R,ugm-3
01-01-2013,24:00,3.24703,R,ugm-3,34.20841,R,ugm-3,39.18713,R,ugm-3,28.43873,R,ugm-3
02-01-2013,01:00,2.68668,R,ugm-3,29.61698,R,ugm-3,33.73650,R,ugm-3,34.39256,R,ugm-3
02-01-2013,02:00,3.17521,R,ugm-3,36.05891,R,ugm-3,40.92750,R,ugm-3,23.88188,R,ugm-3
02-01-2013,03:00,3.04092,R,ugm-3,28.09845,R,ugm-3,32.76113,R,ugm-3,29.58625,R,ugm-3
02-01-2013,04:00,2.45438,R,ugm-3,20.04730,R,ugm-3,23.81063,R,ugm-3,36.47142,R,ugm-3
02-01-2013,05:00,2.49148,R,ugm-3,23.71978,R,ugm-3,27.54000,R,ugm-3,29.58625,R,ugm-3
02-01-2013,06:00,3.44380,R,ugm-3,26.79221,R,ugm-3,32.07263,R,ugm-3,27.04174,R,ugm-3
02-01-2013,07:00,3.84667,R,ugm-3,31.28085,R,ugm-3,37.17900,R,ugm-3,28.53851,R,ugm-3
02-01-2013,08:00,12.97036,R,ugm-3,50.85577,R,ugm-3,70.74338,R,ugm-3,12.52302,R,ugm-3
02-01-2013,09:00,32.02287,R,ugm-3,62.89495,R,ugm-3,111.99600,R,ugm-3,4.49033,R,ugm-3
02-01-2013,10:00,25.42746,R,ugm-3,58.72140,R,ugm-3,97.70963,R,ugm-3,6.18667,R,ugm-3
02-01-2013,11:00,25.13465,R,ugm-3,58.02286,R,ugm-3,96.56213,R,ugm-3,10.57721,R,ugm-3
02-01-2013,12:00,36.60295,R,ugm-3,65.85550,R,ugm-3,121.97925,R,ugm-3,6.08689,R,ugm-3
02-01-2013,13:00,20.37153,R,ugm-3,61.19522,R,ugm-3,92.43113,R,ugm-3,12.27356,R,ugm-3
02-01-2013,14:00,9.81968,R,ugm-3,53.79337,R,ugm-3,68.85000,R,ugm-3,21.70324,R,ugm-3
02-01-2013,15:00,4.65336,R,ugm-3,39.96982,R,ugm-3,47.10488,R,ugm-3,41.41078,R,ugm-3
02-01-2013,16:00,3.73722,R,ugm-3,40.34180,R,ugm-3,46.07213,R,ugm-3,38.11787,R,ugm-3
02-01-2013,17:00,4.76282,R,ugm-3,51.39174,R,ugm-3,58.69463,R,ugm-3,23.64905,R,ugm-3
02-01-2013,18:00,6.63158,R,ugm-3,59.71447,R,ugm-3,69.88275,R,ugm-3,14.81807,R,ugm-3
02-01-2013,19:00,3.70012,R,ugm-3,37.01357,R,ugm-3,42.68700,R,ugm-3,35.12432,R,ugm-3
02-01-2013,20:00,3.00412,R,ugm-3,30.79412,R,ugm-3,35.40038,R,ugm-3,40.36303,R,ugm-3
02-01-2013,21:00,3.04092,R,ugm-3,30.27870,R,ugm-3,34.94138,R,ugm-3,41.31099,R,ugm-3
02-01-2013,22:00,3.11451,R,ugm-3,27.35449,R,ugm-3,32.13000,R,ugm-3,41.46067,R,ugm-3
02-01-2013,23:00,2.89436,R,ugm-3,30.04442,R,ugm-3,34.48238,R,ugm-3,32.13077,R,ugm-3
02-01-2013,24:00,2.56476,R,ugm-3,29.00067,R,ugm-3,32.93325,R,ugm-3,33.67744,R,ugm-3
03-01-2013,01:00,2.10960,R,ugm-3,22.85183,R,ugm-3,26.08650,R,ugm-3,40.11357,R,ugm-3
03-01-2013,02:00,2.06054,R,ugm-3,16.73055,R,ugm-3,19.89000,R,ugm-3,49.42684,R,ugm-3
03-01-2013,03:00,1.83977,R,ugm-3,9.74419,R,ugm-3,12.56513,R,ugm-3,60.36993,R,ugm-3
03-01-2013,04:00,1.76618,R,ugm-3,10.83240,R,ugm-3,13.54050,R,ugm-3,57.72562,R,ugm-3
03-01-2013,05:00,2.02374,R,ugm-3,11.64234,R,ugm-3,14.74538,R,ugm-3,55.63014,R,ugm-3
03-01-2013,06:00,2.42849,R,ugm-3,14.46424,R,ugm-3,18.18788,R,ugm-3,51.28949,R,ugm-3
03-01-2013,07:00,2.61247,R,ugm-3,18.65739,R,ugm-3,22.66313,R,ugm-3,49.34368,R,ugm-3
03-01-2013,08:00,3.42197,R,ugm-3,28.03056,R,ugm-3,33.27750,R,ugm-3,39.96389,R,ugm-3
03-01-2013,09:00,8.97807,R,ugm-3,37.52708,R,ugm-3,51.29325,R,ugm-3,31.48217,R,ugm-3
03-01-2013,10:00,5.26174,R,ugm-3,31.06187,R,ugm-3,39.12975,R,ugm-3,37.86841,R,ugm-3
03-01-2013,11:00,6.73355,R,ugm-3,32.13287,R,ugm-3,42.45750,R,ugm-3,39.06583,R,ugm-3
03-01-2013,12:00,5.59289,R,ugm-3,27.62798,R,ugm-3,36.20363,R,ugm-3,45.70153,R,ugm-3
03-01-2013,13:00,4.67301,R,ugm-3,25.82544,R,ugm-3,32.99063,R,ugm-3,49.99229,R,ugm-3
03-01-2013,14:00,5.11455,R,ugm-3,28.13192,R,ugm-3,35.97413,R,ugm-3,46.40003,R,ugm-3
03-01-2013,15:00,4.12108,R,ugm-3,25.81110,R,ugm-3,32.13000,R,ugm-3,51.33938,R,ugm-3
03-01-2013,16:00,3.12761,R,ugm-3,28.65403,R,ugm-3,33.44963,R,ugm-3,45.50196,R,ugm-3
03-01-2013,17:00,3.27479,R,ugm-3,37.03461,R,ugm-3,42.05588,R,ugm-3,35.52346,R,ugm-3
03-01-2013,18:00,3.45876,R,ugm-3,37.78526,R,ugm-3,43.08863,R,ugm-3,35.77292,R,ugm-3
03-01-2013,19:00,3.09081,R,ugm-3,31.92345,R,ugm-3,36.66263,R,ugm-3,41.76002,R,ugm-3
03-01-2013,20:00,3.27479,R,ugm-3,32.55936,R,ugm-3,37.58063,R,ugm-3,41.56045,R,ugm-3
03-01-2013,21:00,2.68606,R,ugm-3,25.20006,R,ugm-3,29.31863,R,ugm-3,49.04433,R,ugm-3
03-01-2013,22:00,2.64927,R,ugm-3,19.05998,R,ugm-3,23.12213,R,ugm-3,56.77767,R,ugm-3
03-01-2013,23:00,2.20772,R,ugm-3,14.57325,R,ugm-3,17.95838,R,ugm-3,61.96649,R,ugm-3
03-01-2013,24:00,1.91336,R,ugm-3,10.60673,R,ugm-3,13.54050,R,ugm-3,66.60649,R,ugm-3
04-01-2013,01:00,1.87386,R,ugm-3,8.75479,R,ugm-3,11.62800,R,ugm-3,68.45251,R,ugm-3
04-01-2013,02:00,1.87386,R,ugm-3,5.15929,R,ugm-3,8.03250,R,ugm-3,78.69710,R,ugm-3
04-01-2013,03:00,1.70163,R,ugm-3,4.84962,R,ugm-3,7.45875,R,ugm-3,81.62413,R,ugm-3
04-01-2013,04:00,1.88623,R,ugm-3,6.23045,R,ugm-3,9.12263,R,ugm-3,79.72822,R,ugm-3
04-01-2013,05:00,1.77491,R,ugm-3,5.02414,R,ugm-3,7.74563,R,ugm-3,83.76951,R,ugm-3
04-01-2013,06:00,2.07052,R,ugm-3,9.79200,R,ugm-3,12.96675,R,ugm-3,77.68262,R,ugm-3
04-01-2013,07:00,1.95982,R,ugm-3,13.86323,R,ugm-3,16.86825,R,ugm-3,74.14026,R,ugm-3
04-01-2013,08:00,2.88469,R,ugm-3,22.37099,R,ugm-3,26.79413,R,ugm-3,64.31143,R,ugm-3
04-01-2013,09:00,3.03250,R,ugm-3,24.20986,R,ugm-3,28.85963,R,ugm-3,63.36348,R,ugm-3
04-01-2013,10:00,3.25452,R,ugm-3,22.49243,R,ugm-3,27.48263,R,ugm-3,69.55015,R,ugm-3
04-01-2013,11:00,4.51211,R,ugm-3,25.84266,R,ugm-3,32.76113,R,ugm-3,64.76047,R,ugm-3
04-01-2013,12:00,4.65991,R,ugm-3,23.72265,R,ugm-3,30.86775,R,ugm-3,64.71057,R,ugm-3
04-01-2013,13:00,3.43974,R,ugm-3,18.13480,R,ugm-3,23.40900,R,ugm-3,73.09251,R,ugm-3
04-01-2013,14:00,3.03250,R,ugm-3,18.75923,R,ugm-3,23.40900,R,ugm-3,69.69982,R,ugm-3
04-01-2013,15:00,2.77368,R,ugm-3,19.67245,R,ugm-3,23.92538,R,ugm-3,64.96004,R,ugm-3
04-01-2013,16:00,2.88438,R,ugm-3,22.25672,R,ugm-3,26.67938,R,ugm-3,62.41552,R,ugm-3
04-01-2013,17:00,2.92149,R,ugm-3,29.60120,R,ugm-3,34.08075,R,ugm-3,52.23745,R,ugm-3
04-01-2013,18:00,3.06961,R,ugm-3,34.19359,R,ugm-3,38.90025,R,ugm-3,41.36088,R,ugm-3
04-01-2013,19:00,4.58570,R,ugm-3,46.95857,R,ugm-3,53.98988,R,ugm-3,23.64905,R,ugm-3
04-01-2013,20:00,3.25421,R,ugm-3,32.93516,R,ugm-3,37.92488,R,ugm-3,38.76647,R,ugm-3
04-01-2013,21:00,2.81048,R,ugm-3,23.17328,R,ugm-3,27.48263,R,ugm-3,47.34798,R,ugm-3
04-01-2013,22:00,3.43943,R,ugm-3,24.67603,R,ugm-3,29.94975,R,ugm-3,46.59960,R,ugm-3
04-01-2013,23:00,2.88438,R,ugm-3,20.36334,R,ugm-3,24.78600,R,ugm-3,49.44347,R,ugm-3
04-01-2013,24:00,2.40417,R,ugm-3,15.41953,R,ugm-3,19.10588,R,ugm-3,55.48046,R,ugm-3
05-01-2013,01:00,2.37735,R,ugm-3,14.94428,R,ugm-3,18.58950,R,ugm-3,51.02340,R,ugm-3
05-01-2013,02:00,2.02977,R,ugm-3,14.86523,R,ugm-3,17.97750,R,ugm-3,47.03200,R,ugm-3
05-01-2013,03:00,2.07925,R,ugm-3,10.12286,R,ugm-3,13.31100,R,ugm-3,61.01853,R,ugm-3
05-01-2013,04:00,1.81950,R,ugm-3,5.93114,R,ugm-3,8.72100,R,ugm-3,66.95574,R,ugm-3
05-01-2013,05:00,1.85661,R,ugm-3,4.15299,R,ugm-3,6.99975,R,ugm-3,68.30283,R,ugm-3
05-01-2013,06:00,2.26510,R,ugm-3,9.60840,R,ugm-3,13.08150,R,ugm-3,56.52820,R,ugm-3
05-01-2013,07:00,2.63710,R,ugm-3,19.93925,R,ugm-3,23.98275,R,ugm-3,42.95744,R,ugm-3
05-01-2013,08:00,4.60503,R,ugm-3,33.10155,R,ugm-3,40.16250,R,ugm-3,28.18926,R,ugm-3
05-01-2013,09:00,6.23931,R,ugm-3,46.60332,R,ugm-3,56.17013,R,ugm-3,15.26711,R,ugm-3
05-01-2013,10:00,7.24182,R,ugm-3,43.57440,R,ugm-3,54.67838,R,ugm-3,17.11313,R,ugm-3
05-01-2013,11:00,9.65566,R,ugm-3,45.20911,R,ugm-3,60.01425,R,ugm-3,18.11098,R,ugm-3
05-01-2013,12:00,9.28459,R,ugm-3,41.30283,R,ugm-3,55.53900,R,ugm-3,25.04604,R,ugm-3
05-01-2013,13:00,4.04811,R,ugm-3,22.76736,R,ugm-3,28.97438,R,ugm-3,50.19186,R,ugm-3
05-01-2013,14:00,3.71352,R,ugm-3,17.82976,R,ugm-3,23.52375,R,ugm-3,57.97509,R,ugm-3
05-01-2013,15:00,2.82264,R,ugm-3,14.83526,R,ugm-3,19.16325,R,ugm-3,60.76907,R,ugm-3
05-01-2013,16:00,2.41415,R,ugm-3,16.03536,R,ugm-3,19.73700,R,ugm-3,57.97509,R,ugm-3
05-01-2013,17:00,2.82264,R,ugm-3,25.56439,R,ugm-3,29.89238,R,ugm-3,47.44777,R,ugm-3
05-01-2013,18:00,2.52547,R,ugm-3,19.99567,R,ugm-3,23.86800,R,ugm-3,55.28089,R,ugm-3
05-01-2013,19:00,2.93396,R,ugm-3,21.43482,R,ugm-3,25.93350,R,ugm-3,50.64089,R,ugm-3
05-01-2013,20:00,3.04528,R,ugm-3,26.54263,R,ugm-3,31.21200,R,ugm-3,42.05938,R,ugm-3
05-01-2013,21:00,3.78836,R,ugm-3,34.92751,R,ugm-3,40.73625,R,ugm-3,31.88131,R,ugm-3
05-01-2013,22:00,3.49088,R,ugm-3,38.19502,R,ugm-3,43.54763,R,ugm-3,28.53851,R,ugm-3
05-01-2013,23:00,8.87610,R,ugm-3,50.47805,R,ugm-3,64.08788,R,ugm-3,13.02194,R,ugm-3
05-01-2013,24:00,7.57579,R,ugm-3,50.75058,R,ugm-3,62.36663,R,ugm-3,8.93076,R,ugm-3
06-01-2013,01:00,2.63555,R,ugm-3,28.16539,R,ugm-3,32.20650,R,ugm-3,34.19299,R,ugm-3
06-01-2013,02:00,2.48629,R,ugm-3,19.59675,R,ugm-3,23.40900,R,ugm-3,38.38396,R,ugm-3
06-01-2013,03:00,2.57318,R,ugm-3,22.50439,R,ugm-3,26.44988,R,ugm-3,31.88131,R,ugm-3
06-01-2013,04:00,2.46155,R,ugm-3,26.97868,R,ugm-3,30.75300,R,ugm-3,25.74453,R,ugm-3
06-01-2013,05:00,2.31249,R,ugm-3,15.27323,R,ugm-3,18.81900,R,ugm-3,37.12002,R,ugm-3
06-01-2013,06:00,2.42382,R,ugm-3,12.34853,R,ugm-3,16.06500,R,ugm-3,40.81207,R,ugm-3
06-01-2013,07:00,2.31218,R,ugm-3,12.97870,R,ugm-3,16.52400,R,ugm-3,46.94884,R,ugm-3
06-01-2013,08:00,2.72223,R,ugm-3,22.79222,R,ugm-3,26.96625,R,ugm-3,34.67529,R,ugm-3
06-01-2013,09:00,8.65221,R,ugm-3,41.01022,R,ugm-3,54.27675,R,ugm-3,12.67270,R,ugm-3
06-01-2013,10:00,8.35410,R,ugm-3,37.68055,R,ugm-3,50.49000,R,ugm-3,15.41678,R,ugm-3
06-01-2013,11:00,12.49358,R,ugm-3,40.62819,R,ugm-3,59.78475,R,ugm-3,13.07184,R,ugm-3
06-01-2013,12:00,8.09311,R,ugm-3,33.89237,R,ugm-3,46.30163,R,ugm-3,27.69034,R,ugm-3
06-01-2013,13:00,11.97127,R,ugm-3,41.77330,R,ugm-3,60.12900,R,ugm-3,15.71614,R,ugm-3
06-01-2013,14:00,5.85514,R,ugm-3,34.56987,R,ugm-3,43.54763,R,ugm-3,29.58625,R,ugm-3
06-01-2013,15:00,4.92309,R,ugm-3,36.34324,R,ugm-3,43.89188,R,ugm-3,31.18281,R,ugm-3
06-01-2013,16:00,4.51273,R,ugm-3,39.43958,R,ugm-3,46.35900,R,ugm-3,25.54496,R,ugm-3
06-01-2013,17:00,4.95989,R,ugm-3,44.89307,R,ugm-3,52.49813,R,ugm-3,22.60130,R,ugm-3
06-01-2013,18:00,10.40498,R,ugm-3,57.42855,R,ugm-3,73.38263,R,ugm-3,8.48173,R,ugm-3
06-01-2013,19:00,10.92728,R,ugm-3,55.36544,R,ugm-3,72.12038,R,ugm-3,7.83312,R,ugm-3
06-01-2013,20:00,8.20474,R,ugm-3,50.81895,R,ugm-3,63.39938,R,ugm-3,11.37549,R,ugm-3
06-01-2013,21:00,4.47531,R,ugm-3,37.20195,R,ugm-3,44.06400,R,ugm-3,21.10453,R,ugm-3
06-01-2013,22:00,4.58726,R,ugm-3,35.48118,R,ugm-3,42.51488,R,ugm-3,20.50582,R,ugm-3
06-01-2013,23:00,3.13259,R,ugm-3,17.57301,R,ugm-3,22.37625,R,ugm-3,48.79487,R,ugm-3
06-01-2013,24:00,2.53607,R,ugm-3,16.02053,R,ugm-3,19.90913,R,ugm-3,49.09422,R,ugm-3
07-01-2013,01:00,1.94953,R,ugm-3,7.64426,R,ugm-3,10.63350,R,ugm-3,54.01695,R,ugm-3
07-01-2013,02:00,2.04931,R,ugm-3,5.96126,R,ugm-3,9.10350,R,ugm-3,51.48906,R,ugm-3
07-01-2013,03:00,1.94922,R,ugm-3,6.01912,R,ugm-3,9.00788,R,ugm-3,48.39573,R,ugm-3
07-01-2013,04:00,2.13663,R,ugm-3,7.51039,R,ugm-3,10.78650,R,ugm-3,41.31099,R,ugm-3
07-01-2013,05:00,2.39856,R,ugm-3,8.31364,R,ugm-3,11.99138,R,ugm-3,37.21981,R,ugm-3
07-01-2013,06:00,2.73626,R,ugm-3,14.56608,R,ugm-3,18.76163,R,ugm-3,31.88131,R,ugm-3
07-01-2013,07:00,4.16037,R,ugm-3,25.06236,R,ugm-3,31.44150,R,ugm-3,20.75528,R,ugm-3
07-01-2013,08:00,11.95662,R,ugm-3,37.95165,R,ugm-3,56.28488,R,ugm-3,8.58151,R,ugm-3
07-01-2013,09:00,19.22775,R,ugm-3,43.95786,R,ugm-3,73.44000,R,ugm-3,4.64000,R,ugm-3
07-01-2013,10:00,19.82770,R,ugm-3,44.07069,R,ugm-3,74.47275,R,ugm-3,7.08474,R,ugm-3
07-01-2013,11:00,21.40211,R,ugm-3,42.45989,R,ugm-3,75.27600,R,ugm-3,8.38194,R,ugm-3
07-01-2013,12:00,18.62811,R,ugm-3,41.03317,R,ugm-3,69.59588,R,ugm-3,10.97635,R,ugm-3
07-01-2013,13:00,15.10512,R,ugm-3,38.97627,R,ugm-3,62.13713,R,ugm-3,14.36904,R,ugm-3
07-01-2013,14:00,7.42144,R,ugm-3,29.07000,R,ugm-3,40.44938,R,ugm-3,24.34754,R,ugm-3
07-01-2013,15:00,6.67150,R,ugm-3,29.35927,R,ugm-3,39.58875,R,ugm-3,22.15227,R,ugm-3
07-01-2013,16:00,8.35816,R,ugm-3,34.92034,R,ugm-3,47.73600,R,ugm-3,17.36259,R,ugm-3
07-01-2013,17:00,7.98366,R,ugm-3,36.75682,R,ugm-3,48.99825,R,ugm-3,11.17592,R,ugm-3
07-01-2013,18:00,6.85890,R,ugm-3,33.31766,R,ugm-3,43.83450,R,ugm-3,12.47313,R,ugm-3
07-01-2013,19:00,9.55775,R,ugm-3,37.78574,R,ugm-3,52.44075,R,ugm-3,9.82882,R,ugm-3
07-01-2013,20:00,8.58330,R,ugm-3,39.16513,R,ugm-3,52.32600,R,ugm-3,11.62495,R,ugm-3
07-01-2013,21:00,5.24770,R,ugm-3,34.75538,R,ugm-3,42.80175,R,ugm-3,18.41033,R,ugm-3
07-01-2013,22:00,4.64744,R,ugm-3,32.52015,R,ugm-3,39.64613,R,ugm-3,23.15012,R,ugm-3
07-01-2013,23:00,3.07335,R,ugm-3,25.23735,R,ugm-3,29.94975,R,ugm-3,37.51916,R,ugm-3
07-01-2013,24:00,2.32372,R,ugm-3,18.98539,R,ugm-3,22.54838,R,ugm-3,44.00519,R,ugm-3
08-01-2013,01:00,2.05763,R,ugm-3,15.89351,R,ugm-3,19.04850,R,ugm-3,47.49766,R,ugm-3
08-01-2013,02:00,1.95701,R,ugm-3,11.15179,R,ugm-3,14.15250,R,ugm-3,51.75515,R,ugm-3
08-01-2013,03:00,1.95670,R,ugm-3,9.33539,R,ugm-3,12.33563,R,ugm-3,53.13551,R,ugm-3
08-01-2013,04:00,1.91960,R,ugm-3,10.76929,R,ugm-3,13.71263,R,ugm-3,54.68218,R,ugm-3
08-01-2013,05:00,2.18278,R,ugm-3,11.34113,R,ugm-3,14.68800,R,ugm-3,54.88175,R,ugm-3
08-01-2013,06:00,2.10763,R,ugm-3,14.72673,R,ugm-3,17.95838,R,ugm-3,55.53035,R,ugm-3
08-01-2013,07:00,3.16128,R,ugm-3,27.68439,R,ugm-3,32.53163,R,ugm-3,44.75357,R,ugm-3
08-01-2013,08:00,7.49004,R,ugm-3,43.53806,R,ugm-3,55.02263,R,ugm-3,28.48862,R,ugm-3
08-01-2013,09:00,12.34484,R,ugm-3,54.05251,R,ugm-3,72.98100,R,ugm-3,14.41893,R,ugm-3
08-01-2013,10:00,10.95254,R,ugm-3,51.36784,R,ugm-3,68.16150,R,ugm-3,17.76173,R,ugm-3
08-01-2013,11:00,7.26396,R,ugm-3,37.68820,R,ugm-3,48.82613,R,ugm-3,33.22841,R,ugm-3
08-01-2013,12:00,8.09186,R,ugm-3,31.77141,R,ugm-3,44.17875,R,ugm-3,41.71013,R,ugm-3
08-01-2013,13:00,7.18881,R,ugm-3,26.73006,R,ugm-3,37.75275,R,ugm-3,47.09852,R,ugm-3
08-01-2013,14:00,5.98455,R,ugm-3,27.19958,R,ugm-3,36.37575,R,ugm-3,45.35228,R,ugm-3
08-01-2013,15:00,4.89253,R,ugm-3,28.52972,R,ugm-3,36.03150,R,ugm-3,42.00949,R,ugm-3
08-01-2013,16:00,4.66709,R,ugm-3,33.00640,R,ugm-3,40.16250,R,ugm-3,36.27185,R,ugm-3
08-01-2013,17:00,3.87661,R,ugm-3,34.10370,R,ugm-3,40.04775,R,ugm-3,33.77722,R,ugm-3
08-01-2013,18:00,4.77997,R,ugm-3,40.80845,R,ugm-3,48.13763,R,ugm-3,25.44518,R,ugm-3
08-01-2013,19:00,4.44101,R,ugm-3,37.77092,R,ugm-3,44.58038,R,ugm-3,28.38883,R,ugm-3
08-01-2013,20:00,4.29071,R,ugm-3,36.73913,R,ugm-3,43.31813,R,ugm-3,24.79657,R,ugm-3
08-01-2013,21:00,4.32844,R,ugm-3,32.09127,R,ugm-3,38.72813,R,ugm-3,24.44733,R,ugm-3
08-01-2013,22:00,3.98980,R,ugm-3,25.95502,R,ugm-3,32.07263,R,ugm-3,28.63830,R,ugm-3
08-01-2013,23:00,3.61343,R,ugm-3,23.83549,R,ugm-3,29.37600,R,ugm-3,26.19356,R,ugm-3
08-01-2013,24:00,2.59719,R,ugm-3,18.22182,R,ugm-3,22.20413,R,ugm-3,27.88991,R,ugm-3
09-01-2013,01:00,2.72078,R,ugm-3,18.16620,R,ugm-3,22.33800,R,ugm-3,24.54711,R,ugm-3
09-01-2013,02:00,2.62016,R,ugm-3,13.19498,R,ugm-3,17.21250,R,ugm-3,27.67371,R,ugm-3
09-01-2013,03:00,2.38078,R,ugm-3,11.95552,R,ugm-3,15.60600,R,ugm-3,27.64045,R,ugm-3
09-01-2013,04:00,2.75872,R,ugm-3,17.11353,R,ugm-3,21.34350,R,ugm-3,19.70754,R,ugm-3
09-01-2013,05:00,2.98572,R,ugm-3,20.32270,R,ugm-3,24.90075,R,ugm-3,16.21506,R,ugm-3
09-01-2013,06:00,2.38078,R,ugm-3,18.72577,R,ugm-3,22.37625,R,ugm-3,32.72948,R,ugm-3
09-01-2013,07:00,2.45656,R,ugm-3,17.00308,R,ugm-3,20.76975,R,ugm-3,39.31529,R,ugm-3
09-01-2013,08:00,2.68294,R,ugm-3,17.40184,R,ugm-3,21.51563,R,ugm-3,47.84691,R,ugm-3
09-01-2013,09:00,3.93024,R,ugm-3,24.21034,R,ugm-3,30.23663,R,ugm-3,38.06798,R,ugm-3
09-01-2013,10:00,2.94799,R,ugm-3,15.96268,R,ugm-3,20.48288,R,ugm-3,45.65164,R,ugm-3
09-01-2013,11:00,3.74159,R,ugm-3,17.55723,R,ugm-3,23.29425,R,ugm-3,48.79487,R,ugm-3
09-01-2013,12:00,4.61064,R,ugm-3,17.42957,R,ugm-3,24.49913,R,ugm-3,53.48476,R,ugm-3
09-01-2013,13:00,4.00602,R,ugm-3,11.81590,R,ugm-3,17.95838,R,ugm-3,65.65853,R,ugm-3
09-01-2013,14:00,3.21211,R,ugm-3,10.04971,R,ugm-3,14.97488,R,ugm-3,70.79746,R,ugm-3
09-01-2013,15:00,6.16042,R,ugm-3,16.02866,R,ugm-3,25.47450,R,ugm-3,67.00563,R,ugm-3
09-01-2013,16:00,3.96829,R,ugm-3,26.21751,R,ugm-3,32.30213,R,ugm-3,43.90540,R,ugm-3
09-01-2013,17:00,9.90169,R,ugm-3,55.38887,R,ugm-3,70.57125,R,ugm-3,11.62495,R,ugm-3
09-01-2013,18:00,59.44881,R,ugm-3,73.97168,R,ugm-3,165.12525,R,ugm-3,4.54022,R,ugm-3
09-01-2013,19:00,99.16971,R,ugm-3,74.91741,R,ugm-3,226.97550,R,ugm-3,2.24516,R,ugm-3
09-01-2013,20:00,90.47665,R,ugm-3,72.87008,R,ugm-3,211.59900,R,ugm-3,5.43828,R,ugm-3
09-01-2013,21:00,79.36570,R,ugm-3,66.49763,R,ugm-3,188.19000,R,ugm-3,5.88732,R,ugm-3
09-01-2013,22:00,107.97502,R,ugm-3,68.70274,R,ugm-3,234.26213,R,ugm-3,3.34280,R,ugm-3
09-01-2013,23:00,81.29309,R,ugm-3,61.30471,R,ugm-3,185.95238,R,ugm-3,1.74624,R,ugm-3
09-01-2013,24:00,54.08199,R,ugm-3,57.24256,R,ugm-3,140.16713,R,ugm-3,3.49248,R,ugm-3
10-01-2013,01:00,42.50300,R,ugm-3,51.33533,R,ugm-3,116.50568,R,ugm-3,2.79398,R,ugm-3
10-01-2013,02:00,80.60385,R,ugm-3,42.81386,R,ugm-3,166.40471,R,ugm-3,4.19097,R,ugm-3
10-01-2013,03:00,81.02149,R,ugm-3,37.82877,R,ugm-3,162.05999,R,ugm-3,5.48818,R,ugm-3
10-01-2013,04:00,73.81116,R,ugm-3,34.67554,R,ugm-3,147.85107,R,ugm-3,3.99140,R,ugm-3
10-01-2013,05:00,92.06446,R,ugm-3,46.51726,R,ugm-3,187.68080,R,ugm-3,1.59656,R,ugm-3
10-01-2013,06:00,58.06213,R,ugm-3,39.80391,R,ugm-3,128.83126,R,ugm-3,3.89162,R,ugm-3
10-01-2013,07:00,37.15208,R,ugm-3,40.81849,R,ugm-3,97.78421,R,ugm-3,5.48818,R,ugm-3
10-01-2013,08:00,70.81328,R,ugm-3,50.96382,R,ugm-3,159.54266,R,ugm-3,4.78968,R,ugm-3
10-01-2013,09:00,52.21790,R,ugm-3,50.55503,R,ugm-3,130.62136,R,ugm-3,2.44473,R,ugm-3
10-01-2013,10:00,44.21086,R,ugm-3,48.28776,R,ugm-3,116.07680,R,ugm-3,3.74194,R,ugm-3
10-01-2013,11:00,42.12350,R,ugm-3,50.81704,R,ugm-3,115.40551,R,ugm-3,8.03269,R,ugm-3
10-01-2013,12:00,40.68131,R,ugm-3,57.95114,R,ugm-3,120.32828,R,ugm-3,7.18452,R,ugm-3
10-01-2013,13:00,107.20606,R,ugm-3,85.28268,R,ugm-3,249.66301,R,ugm-3,10.52732,R,ugm-3
10-01-2013,14:00,,,,,,,,,,8.68130,R,ugm-3
10-01-2013,15:00,20.99830,R,ugm-3,49.62555,R,ugm-3,81.82249,R,ugm-3,6.58581,R,ugm-3
10-01-2013,16:00,16.69761,R,ugm-3,50.30879,R,ugm-3,75.91143,R,ugm-3,7.63355,R,ugm-3
10-01-2013,17:00,16.58379,R,ugm-3,53.89568,R,ugm-3,79.32381,R,ugm-3,3.44258,R,ugm-3
10-01-2013,18:00,20.30293,R,ugm-3,55.52131,R,ugm-3,86.65203,R,ugm-3,0.89807,R,ugm-3
10-01-2013,19:00,11.19514,R,ugm-3,49.45964,R,ugm-3,66.62528,R,ugm-3,4.93936,R,ugm-3
10-01-2013,20:00,8.76634,R,ugm-3,48.09316,R,ugm-3,61.53469,R,ugm-3,4.88947,R,ugm-3
10-01-2013,21:00,9.52532,R,ugm-3,52.46753,R,ugm-3,67.07281,R,ugm-3,4.19097,R,ugm-3
10-01-2013,22:00,11.23318,R,ugm-3,52.86963,R,ugm-3,70.09360,R,ugm-3,3.89162,R,ugm-3
10-01-2013,23:00,5.76814,R,ugm-3,40.27151,R,ugm-3,49.11587,R,ugm-3,12.62280,R,ugm-3
10-01-2013,24:00,3.90842,R,ugm-3,27.45968,R,ugm-3,33.45249,R,ugm-3,22.00259,R,ugm-3
11-01-2013,01:00,3.09414,R,ugm-3,25.29090,R,ugm-3,30.03543,R,ugm-3,20.48919,R,ugm-3
11-01-2013,02:00,3.85499,R,ugm-3,35.03318,R,ugm-3,40.94382,R,ugm-3,6.91843,R,ugm-3
11-01-2013,03:00,5.97270,R,ugm-3,41.94686,R,ugm-3,51.10506,R,ugm-3,4.54022,R,ugm-3
11-01-2013,04:00,10.72803,R,ugm-3,42.89307,R,ugm-3,59.34239,R,ugm-3,2.54452,R,ugm-3
11-01-2013,05:00,16.16813,R,ugm-3,44.30163,R,ugm-3,69.09270,R,ugm-3,2.54452,R,ugm-3
11-01-2013,06:00,25.10815,R,ugm-3,47.74126,R,ugm-3,86.23979,R,ugm-3,2.94366,R,ugm-3
11-01-2013,07:00,17.53766,R,ugm-3,50.21508,R,ugm-3,77.10588,R,ugm-3,4.59011,R,ugm-3
11-01-2013,08:00,9.13024,R,ugm-3,46.74389,R,ugm-3,60.74330,R,ugm-3,8.48173,R,ugm-3
11-01-2013,09:00,28.60807,R,ugm-3,53.41373,R,ugm-3,97.27893,R,ugm-3,3.64215,R,ugm-3
11-01-2013,10:00,90.50346,R,ugm-3,72.93510,R,ugm-3,211.70495,R,ugm-3,5.38839,R,ugm-3
11-01-2013,11:00,51.54779,R,ugm-3,54.04725,R,ugm-3,133.08609,R,ugm-3,6.38624,R,ugm-3
11-01-2013,12:00,69.96043,R,ugm-3,57.64371,R,ugm-3,164.91468,R,ugm-3,6.38624,R,ugm-3
11-01-2013,13:00,48.73264,R,ugm-3,55.73025,R,ugm-3,130.45239,R,ugm-3,6.43613,R,ugm-3
11-01-2013,14:00,47.59136,R,ugm-3,58.65685,R,ugm-3,131.62915,R,ugm-3,7.23441,R,ugm-3
11-01-2013,15:00,55.12380,R,ugm-3,62.18063,R,ugm-3,146.70290,R,ugm-3,6.28646,R,ugm-3
11-01-2013,16:00,72.50929,R,ugm-3,67.18421,R,ugm-3,178.36338,R,ugm-3,4.39054,R,ugm-3
11-01-2013,17:00,72.96580,R,ugm-3,72.64823,R,ugm-3,184.52737,R,ugm-3,3.39269,R,ugm-3
11-01-2013,18:00,63.60731,R,ugm-3,67.66473,R,ugm-3,165.19487,R,ugm-3,3.34280,R,ugm-3
11-01-2013,19:00,104.08469,R,ugm-3,67.46487,R,ugm-3,227.05889,R,ugm-3,3.84172,R,ugm-3
11-01-2013,20:00,177.05049,R,ugm-3,75.27887,R,ugm-3,346.75232,R,ugm-3,3.99140,R,ugm-3
11-01-2013,21:00,210.18564,R,ugm-3,76.97813,R,ugm-3,399.25828,R,ugm-3,4.98925,R,ugm-3
11-01-2013,22:00,190.66976,R,ugm-3,78.88393,R,ugm-3,371.24016,R,ugm-3,3.94151,R,ugm-3
11-01-2013,23:00,170.01260,R,ugm-3,76.15193,R,ugm-3,336.83390,R,ugm-3,3.69205,R,ugm-3
11-01-2013,24:00,171.30605,R,ugm-3,68.90116,R,ugm-3,331.56649,R,ugm-3,3.79183,R,ugm-3
12-01-2013,01:00,198.80673,R,ugm-3,67.00189,R,ugm-3,371.83463,R,ugm-3,3.12660,R,ugm-3
12-01-2013,02:00,85.71071,R,ugm-3,52.39931,R,ugm-3,183.81994,R,ugm-3,2.86050,R,ugm-3
12-01-2013,03:00,57.08113,R,ugm-3,49.04989,R,ugm-3,136.57282,R,ugm-3,3.84172,R,ugm-3
12-01-2013,04:00,25.33952,R,ugm-3,49.29230,R,ugm-3,88.14593,R,ugm-3,2.94366,R,ugm-3
12-01-2013,05:00,18.70950,R,ugm-3,47.94159,R,ugm-3,76.62909,R,ugm-3,2.89377,R,ugm-3
12-01-2013,06:00,11.69812,R,ugm-3,45.77091,R,ugm-3,63.70777,R,ugm-3,3.34280,R,ugm-3
12-01-2013,07:00,12.46022,R,ugm-3,46.68126,R,ugm-3,65.78641,R,ugm-3,3.44258,R,ugm-3
12-01-2013,08:00,9.75482,R,ugm-3,49.20002,R,ugm-3,64.15720,R,ugm-3,7.63355,R,ugm-3
12-01-2013,09:00,14.55599,R,ugm-3,56.16439,R,ugm-3,78.48302,R,ugm-3,8.28216,R,ugm-3
12-01-2013,10:00,9.18356,R,ugm-3,46.70564,R,ugm-3,60.78642,R,ugm-3,24.94625,R,ugm-3
12-01-2013,11:00,8.42115,R,ugm-3,39.72836,R,ugm-3,52.64037,R,ugm-3,34.17636,R,ugm-3
12-01-2013,12:00,7.08747,R,ugm-3,33.68295,R,ugm-3,44.55049,R,ugm-3,40.86196,R,ugm-3
12-01-2013,13:00,6.85859,R,ugm-3,30.32603,R,ugm-3,40.84263,R,ugm-3,46.15056,R,ugm-3
12-01-2013,14:00,7.27800,R,ugm-3,33.89715,R,ugm-3,45.05611,R,ugm-3,42.10927,R,ugm-3
12-01-2013,15:00,7.77380,R,ugm-3,34.70901,R,ugm-3,46.62914,R,ugm-3,35.47357,R,ugm-3
12-01-2013,16:00,5.83019,R,ugm-3,30.72336,R,ugm-3,39.66286,R,ugm-3,39.36518,R,ugm-3
12-01-2013,17:00,6.40177,R,ugm-3,38.27391,R,ugm-3,48.08981,R,ugm-3,22.35184,R,ugm-3
12-01-2013,18:00,8.38310,R,ugm-3,42.48332,R,ugm-3,55.33699,R,ugm-3,15.01764,R,ugm-3